{"data":{"norad_id":56041,"intl_designator":"2023-042BH","name":"STARLINK-5800","alt_names":[],"object_type":"PAYLOAD","status":"ACTIVE","operator":null,"country":"US","launch_date":"2023-03-24","launch_site_code":"AFETR","launch_vehicle":null,"mission":null,"orbit_class":"UNKNOWN","rcs_meters":null,"size_class":null,"mass_kg":null,"dimensions":null,"purposes":["comms"],"wikipedia_slug":null,"has_3d_model":false,"image_url":null,"decayed_at":null,"tle_current":{"epoch":"2026-05-25T04:32:47.186592Z","epoch_age_seconds":55360,"freshness":"FRESH","line1":"1 56041U 23042BH  26145.18943503 -.00000478  00000+0 -78465-5 0  9993","line2":"2 56041  43.0010 321.9550 0001885 245.6177 114.4478 15.27585656174860","mean_motion":15.27585656,"eccentricity":0.0001885,"inclination_deg":43.001,"raan_deg":321.955,"arg_perigee_deg":245.6177,"mean_anomaly_deg":114.4478,"bstar":-7.8465e-6,"rev_number":17486,"period_min":94.266399683973,"perigee_km":481.73882960651,"apogee_km":484.32549037983,"semimajor_km":6861.1691599932,"source":"CELESTRAK","updated_at":"2026-05-25T13:38:17.952832Z"}}}